Time,TemperatureF,DewpointF,PressureIn,WindDirection,WindDirectionDegrees,WindSpeedMPH,WindSpeedGustMPH,Humidity,HourlyPrecipIn,Conditions,Clouds,dailyrainin,SoftwareType,DateUTC
2013-01-09 00:03:00,42.0,32.0,30.40,West,280,0.0,0.0,67,0.00,,,0.00,,2013-01-09 05:03:00,
2013-01-09 00:12:00,42.0,32.0,30.40,West,280,0.0,0.0,67,0.00,,,0.00,,2013-01-09 05:12:00,
2013-01-09 00:22:00,43.0,33.0,30.40,West,280,0.0,0.0,67,0.00,,,0.00,,2013-01-09 05:22:00,
2013-01-09 00:33:00,43.0,33.0,30.40,West,280,0.0,0.0,67,0.00,,,0.00,,2013-01-09 05:33:00,
2013-01-09 00:42:00,43.0,33.0,30.40,West,280,0.0,0.0,67,0.00,,,0.00,,2013-01-09 05:42:00,
2013-01-09 00:53:00,44.0,34.0,30.40,West,280,0.0,0.0,67,0.00,,,0.00,,2013-01-09 05:53:00,
2013-01-09 01:02:00,44.0,34.0,30.40,West,280,0.0,0.0,67,0.00,,,0.00,,2013-01-09 06:02:00,
2013-01-09 01:12:00,44.0,34.0,30.40,West,280,0.0,0.0,67,0.00,,,0.00,,2013-01-09 06:12:00,
2013-01-09 01:22:00,44.0,33.0,30.37,West,280,0.0,0.0,66,0.00,,,0.00,,2013-01-09 06:22:00,
2013-01-09 01:32:00,44.0,33.0,30.40,West,280,0.0,0.0,66,0.00,,,0.00,,2013-01-09 06:32:00,
2013-01-09 01:42:00,44.0,33.0,30.40,West,280,0.0,0.0,66,0.00,,,0.00,,2013-01-09 06:42:00,
2013-01-09 01:52:00,44.0,33.0,30.40,West,280,0.0,0.0,66,0.00,,,0.00,,2013-01-09 06:52:00,
2013-01-09 02:02:00,44.0,34.0,30.40,West,280,0.0,0.0,67,0.00,,,0.00,,2013-01-09 07:02:00,
2013-01-09 02:12:00,44.0,34.0,30.40,West,280,0.0,0.0,67,0.00,,,0.00,,2013-01-09 07:12:00,
2013-01-09 02:22:00,44.0,34.0,30.40,West,280,0.0,0.0,67,0.00,,,0.00,,2013-01-09 07:22:00,
2013-01-09 02:32:00,44.0,34.0,30.40,West,280,0.0,0.0,67,0.00,,,0.00,,2013-01-09 07:32:00,
2013-01-09 02:42:00,44.0,34.0,30.40,West,280,0.0,0.0,67,0.00,,,0.00,,2013-01-09 07:42:00,
2013-01-09 02:52:00,44.0,34.0,30.40,West,280,0.0,0.0,67,0.00,,,0.00,,2013-01-09 07:52:00,
2013-01-09 03:02:00,44.0,34.0,30.40,West,280,0.0,0.0,67,0.00,,,0.00,,2013-01-09 08:02:00,
2013-01-09 03:12:00,44.0,34.0,30.40,West,280,0.0,0.0,67,0.00,,,0.00,,2013-01-09 08:12:00,
2013-01-09 03:22:00,44.0,34.0,30.37,West,280,0.0,0.0,67,0.00,,,0.00,,2013-01-09 08:22:00,
2013-01-09 03:32:00,43.0,33.0,30.37,West,280,0.0,0.0,67,0.00,,,0.00,,2013-01-09 08:32:00,
2013-01-09 03:42:00,43.0,33.0,30.37,West,280,0.0,0.0,67,0.00,,,0.00,,2013-01-09 08:42:00,
2013-01-09 03:53:00,40.0,31.0,30.37,West,280,0.0,0.0,69,0.00,,,0.00,,2013-01-09 08:53:00,
2013-01-09 04:02:00,39.0,30.0,30.37,WNW,285,0.0,0.0,71,0.00,,,0.00,,2013-01-09 09:02:00,
2013-01-09 04:12:00,39.0,30.0,30.37,WNW,285,0.0,0.0,71,0.00,,,0.00,,2013-01-09 09:12:00,
2013-01-09 04:22:00,38.0,30.0,30.37,WNW,285,0.0,0.0,74,0.00,,,0.00,,2013-01-09 09:22:00,
2013-01-09 04:32:00,38.0,30.0,30.37,WNW,285,0.0,0.0,74,0.00,,,0.00,,2013-01-09 09:32:00,
2013-01-09 04:42:00,38.0,30.0,30.37,WNW,285,0.0,0.0,74,0.00,,,0.00,,2013-01-09 09:42:00,
2013-01-09 04:53:00,37.0,30.0,30.37,WNW,285,0.0,0.0,76,0.00,,,0.00,,2013-01-09 09:53:00,
2013-01-09 05:02:00,37.0,30.0,30.37,West,280,0.0,0.0,77,0.00,,,0.00,,2013-01-09 10:02:00,
2013-01-09 05:12:00,37.0,30.0,30.37,West,280,0.0,0.0,77,0.00,,,0.00,,2013-01-09 10:12:00,
2013-01-09 05:22:00,36.0,30.0,30.37,West,280,0.0,0.0,78,0.00,,,0.00,,2013-01-09 10:22:00,
2013-01-09 05:32:00,35.0,29.0,30.37,WNW,285,0.0,0.0,79,0.00,,,0.00,,2013-01-09 10:32:00,
2013-01-09 05:42:00,35.0,29.0,30.37,WNW,285,0.0,0.0,79,0.00,,,0.00,,2013-01-09 10:42:00,
2013-01-09 05:52:00,35.0,30.0,30.37,WNW,285,0.0,0.0,81,0.00,,,0.00,,2013-01-09 10:52:00,
2013-01-09 06:02:00,35.0,30.0,30.37,West,280,0.0,0.0,82,0.00,,,0.00,,2013-01-09 11:02:00,
2013-01-09 06:12:00,35.0,30.0,30.37,West,280,0.0,0.0,82,0.00,,,0.00,,2013-01-09 11:12:00,
2013-01-09 06:22:00,36.0,31.0,30.37,WNW,285,0.0,0.0,82,0.00,,,0.00,,2013-01-09 11:22:00,
2013-01-09 06:32:00,37.0,32.0,30.37,WNW,285,0.0,0.0,83,0.00,,,0.00,,2013-01-09 11:32:00,
2013-01-09 06:42:00,37.0,32.0,30.37,WNW,285,0.0,0.0,83,0.00,,,0.00,,2013-01-09 11:42:00,
2013-01-09 06:53:00,37.0,32.0,30.37,West,280,0.0,0.0,83,0.00,,,0.00,,2013-01-09 11:53:00,
2013-01-09 07:03:00,36.0,31.0,30.37,WNW,285,0.0,0.0,82,0.00,,,0.00,,2013-01-09 12:03:00,
2013-01-09 07:12:00,36.0,31.0,30.37,WNW,285,0.0,0.0,82,0.00,,,0.00,,2013-01-09 12:12:00,
2013-01-09 07:23:00,35.0,30.0,30.37,West,280,0.0,0.0,82,0.00,,,0.00,,2013-01-09 12:23:00,
2013-01-09 07:33:00,35.0,30.0,30.37,West,280,0.0,0.0,82,0.00,,,0.00,,2013-01-09 12:33:00,
2013-01-09 07:43:00,35.0,30.0,30.37,West,280,0.0,0.0,82,0.00,,,0.00,,2013-01-09 12:43:00,
2013-01-09 07:53:00,34.0,30.0,30.40,West,280,0.0,0.0,84,0.00,,,0.00,,2013-01-09 12:53:00,
2013-01-09 08:03:00,35.0,31.0,30.40,WNW,285,0.0,0.0,84,0.00,,,0.00,,2013-01-09 13:03:00,
2013-01-09 08:12:00,35.0,31.0,30.40,WNW,285,0.0,0.0,84,0.00,,,0.00,,2013-01-09 13:12:00,
2013-01-09 08:23:00,35.0,31.0,30.40,WNW,285,0.0,0.0,85,0.00,,,0.00,,2013-01-09 13:23:00,
2013-01-09 08:33:00,37.0,33.0,30.40,West,280,0.0,0.0,85,0.00,,,0.00,,2013-01-09 13:33:00,
2013-01-09 08:43:00,37.0,33.0,30.40,West,280,0.0,0.0,85,0.00,,,0.00,,2013-01-09 13:43:00,
2013-01-09 08:53:00,42.0,38.0,30.40,West,280,0.0,0.0,84,0.00,,,0.00,,2013-01-09 13:53:00,
2013-01-09 09:03:00,44.0,38.0,30.40,WNW,285,0.0,0.0,79,0.00,,,0.00,,2013-01-09 14:03:00,
2013-01-09 09:12:00,47.0,37.0,30.40,SE,125,0.0,0.0,67,0.00,,,0.00,,2013-01-09 14:12:00,
2013-01-09 09:23:00,47.0,37.0,30.40,SE,125,0.0,0.0,67,0.00,,,0.00,,2013-01-09 14:23:00,
2013-01-09 09:33:00,49.0,36.0,30.40,South,170,0.0,2.0,60,0.00,,,0.00,,2013-01-09 14:33:00,
2013-01-09 09:43:00,49.0,36.0,30.40,South,170,0.0,2.0,60,0.00,,,0.00,,2013-01-09 14:43:00,
2013-01-09 09:53:00,52.0,35.0,30.40,NE,45,0.0,2.0,52,0.00,,,0.00,,2013-01-09 14:53:00,
2013-01-09 10:03:00,52.0,34.0,30.40,SSE,150,0.0,5.0,50,0.00,,,0.00,,2013-01-09 15:03:00,
2013-01-09 10:13:00,52.0,34.0,30.40,SSE,150,0.0,5.0,50,0.00,,,0.00,,2013-01-09 15:13:00,
2013-01-09 10:23:00,54.0,35.0,30.40,SSE,160,1.0,5.0,49,0.00,,,0.00,,2013-01-09 15:23:00,
2013-01-09 10:33:00,54.0,35.0,30.40,SSW,210,2.0,5.0,48,0.00,,,0.00,,2013-01-09 15:33:00,
2013-01-09 10:42:00,54.0,35.0,30.40,SSW,210,2.0,5.0,48,0.00,,,0.00,,2013-01-09 15:42:00,
2013-01-09 10:53:00,53.0,34.0,30.37,SSE,165,3.0,5.0,48,0.00,,,0.00,,2013-01-09 15:53:00,
2013-01-09 11:03:00,54.0,34.0,30.37,SW,220,3.0,5.0,46,0.00,,,0.00,,2013-01-09 16:03:00,
2013-01-09 11:12:00,54.0,34.0,30.37,SW,220,3.0,5.0,46,0.00,,,0.00,,2013-01-09 16:12:00,
2013-01-09 11:23:00,54.0,34.0,30.37,WSW,245,3.0,7.0,47,0.00,,,0.00,,2013-01-09 16:23:00,
2013-01-09 11:33:00,56.0,34.0,30.34,South,170,3.0,7.0,44,0.00,,,0.00,,2013-01-09 16:33:00,
2013-01-09 11:43:00,56.0,34.0,30.34,South,170,3.0,7.0,44,0.00,,,0.00,,2013-01-09 16:43:00,
2013-01-09 11:53:00,55.0,33.0,30.34,SW,230,5.0,8.0,44,0.00,,,0.00,,2013-01-09 16:53:00,
2013-01-09 12:03:00,55.0,33.0,30.34,SSW,205,5.0,8.0,44,0.00,,,0.00,,2013-01-09 17:03:00,
2013-01-09 12:12:00,55.0,33.0,30.34,SSW,205,5.0,8.0,44,0.00,,,0.00,,2013-01-09 17:12:00,
2013-01-09 12:23:00,56.0,35.0,30.31,SSW,210,7.0,9.0,45,0.00,,,0.00,,2013-01-09 17:23:00,
2013-01-09 12:33:00,56.0,35.0,30.31,SSE,160,6.0,9.0,45,0.00,,,0.00,,2013-01-09 17:33:00,
2013-01-09 12:43:00,56.0,35.0,30.31,SSE,160,6.0,9.0,45,0.00,,,0.00,,2013-01-09 17:43:00,
2013-01-09 12:53:00,56.0,35.0,30.31,SSE,165,7.0,9.0,45,0.00,,,0.00,,2013-01-09 17:53:00,
2013-01-09 13:03:00,56.0,36.0,30.31,SSW,195,7.0,7.0,46,0.00,,,0.00,,2013-01-09 18:03:00,
2013-01-09 13:12:00,56.0,36.0,30.31,SSW,195,7.0,7.0,46,0.00,,,0.00,,2013-01-09 18:12:00,
2013-01-09 13:24:00,55.0,36.0,30.28,SE,135,2.0,6.0,49,0.00,,,0.00,,2013-01-09 18:24:00,
2013-01-09 13:33:00,56.0,38.0,30.28,SE,145,3.0,6.0,50,0.00,,,0.00,,2013-01-09 18:33:00,
2013-01-09 13:43:00,56.0,38.0,30.28,SE,145,3.0,6.0,50,0.00,,,0.00,,2013-01-09 18:43:00,
2013-01-09 13:53:00,59.0,39.0,30.28,SSW,210,5.0,6.0,48,0.00,,,0.00,,2013-01-09 18:53:00,
2013-01-09 14:03:00,59.0,40.0,30.28,SSW,195,5.0,5.0,49,0.00,,,0.00,,2013-01-09 19:03:00,
2013-01-09 14:13:00,59.0,40.0,30.28,SSW,195,5.0,5.0,49,0.00,,,0.00,,2013-01-09 19:13:00,
2013-01-09 14:23:00,59.0,39.0,30.28,SW,235,3.0,6.0,48,0.00,,,0.00,,2013-01-09 19:23:00,
2013-01-09 14:33:00,59.0,40.0,30.28,SW,230,3.0,3.0,49,0.00,,,0.00,,2013-01-09 19:33:00,
2013-01-09 14:43:00,59.0,40.0,30.28,SW,230,3.0,3.0,49,0.00,,,0.00,,2013-01-09 19:43:00,
2013-01-09 14:53:00,57.0,39.0,30.28,WSW,240,1.0,3.0,51,0.00,,,0.00,,2013-01-09 19:53:00,
2013-01-09 15:03:00,57.0,40.0,30.28,West,260,1.0,2.0,52,0.00,,,0.00,,2013-01-09 20:03:00,
2013-01-09 15:12:00,57.0,40.0,30.28,West,260,1.0,2.0,52,0.00,,,0.00,,2013-01-09 20:12:00,
2013-01-09 15:23:00,56.0,39.0,30.28,West,280,0.0,1.0,53,0.00,,,0.00,,2013-01-09 20:23:00,
2013-01-09 15:33:00,57.0,40.0,30.28,NW,315,0.0,1.0,52,0.00,,,0.00,,2013-01-09 20:33:00,
2013-01-09 15:43:00,57.0,40.0,30.28,NW,315,0.0,1.0,52,0.00,,,0.00,,2013-01-09 20:43:00,
2013-01-09 15:53:00,57.0,40.0,30.25,SSW,210,0.0,0.0,53,0.00,,,0.00,,2013-01-09 20:53:00,
2013-01-09 16:03:00,56.0,39.0,30.25,SW,215,0.0,3.0,53,0.00,,,0.00,,2013-01-09 21:03:00,
2013-01-09 16:13:00,56.0,39.0,30.25,SW,215,0.0,3.0,53,0.00,,,0.00,,2013-01-09 21:13:00,
2013-01-09 16:23:00,56.0,39.0,30.25,SW,215,0.0,3.0,53,0.00,,,0.00,,2013-01-09 21:23:00,
2013-01-09 16:33:00,54.0,39.0,30.25,SSW,210,0.0,0.0,56,0.00,,,0.00,,2013-01-09 21:33:00,
2013-01-09 16:43:00,54.0,39.0,30.25,SSW,210,0.0,0.0,56,0.00,,,0.00,,2013-01-09 21:43:00,
2013-01-09 16:53:00,53.0,39.0,30.22,South,190,0.0,1.0,59,0.00,,,0.00,,2013-01-09 21:53:00,
2013-01-09 17:03:00,53.0,39.0,30.22,SW,225,0.0,0.0,60,0.00,,,0.00,,2013-01-09 22:03:00,
2013-01-09 17:12:00,53.0,39.0,30.22,SW,225,0.0,0.0,60,0.00,,,0.00,,2013-01-09 22:12:00,
2013-01-09 17:23:00,53.0,40.0,30.22,SSW,205,1.0,5.0,61,0.00,,,0.00,,2013-01-09 22:23:00,
2013-01-09 17:33:00,54.0,40.0,30.22,WSW,245,1.0,5.0,59,0.00,,,0.00,,2013-01-09 22:33:00,
2013-01-09 17:43:00,54.0,40.0,30.22,WSW,245,1.0,5.0,59,0.00,,,0.00,,2013-01-09 22:43:00,
2013-01-09 17:52:00,53.0,39.0,30.22,South,180,1.0,5.0,60,0.00,,,0.00,,2013-01-09 22:52:00,
2013-01-09 18:03:00,52.0,39.0,30.22,WSW,240,1.0,3.0,61,0.00,,,0.00,,2013-01-09 23:03:00,
2013-01-09 18:13:00,52.0,39.0,30.22,WSW,240,1.0,3.0,61,0.00,,,0.00,,2013-01-09 23:13:00,
2013-01-09 18:23:00,50.0,38.0,30.22,SW,225,0.0,0.0,64,0.00,,,0.00,,2013-01-09 23:23:00,
2013-01-09 18:33:00,50.0,39.0,30.22,SSE,160,0.0,0.0,67,0.00,,,0.00,,2013-01-09 23:33:00,
2013-01-09 18:43:00,50.0,39.0,30.22,SSE,160,0.0,0.0,67,0.00,,,0.00,,2013-01-09 23:43:00,
2013-01-09 18:53:00,50.0,40.0,30.22,NW,320,0.0,0.0,69,0.00,,,0.00,,2013-01-09 23:53:00,
2013-01-09 19:03:00,50.0,40.0,30.22,SW,215,0.0,1.0,69,0.00,,,0.00,,2013-01-10 00:03:00,
2013-01-09 19:12:00,50.0,40.0,30.22,SW,215,0.0,1.0,69,0.00,,,0.00,,2013-01-10 00:12:00,
2013-01-09 19:22:00,50.0,40.0,30.22,SSW,200,2.0,6.0,69,0.00,,,0.00,,2013-01-10 00:22:00,
2013-01-09 19:32:00,49.0,40.0,30.22,South,175,2.0,2.0,70,0.00,,,0.00,,2013-01-10 00:32:00,
2013-01-09 19:42:00,49.0,40.0,30.22,South,175,2.0,2.0,70,0.00,,,0.00,,2013-01-10 00:42:00,
2013-01-09 19:53:00,49.0,40.0,30.22,West,270,0.0,1.0,72,0.00,,,0.00,,2013-01-10 00:53:00,
2013-01-09 20:02:00,51.0,43.0,30.25,SW,225,2.0,8.0,73,0.00,,,0.00,,2013-01-10 01:02:00,
2013-01-09 20:12:00,51.0,43.0,30.25,SW,225,2.0,8.0,73,0.00,,,0.00,,2013-01-10 01:12:00,
2013-01-09 20:22:00,53.0,42.0,30.25,WSW,240,3.0,8.0,67,0.00,,,0.00,,2013-01-10 01:22:00,
2013-01-09 20:33:00,52.0,41.0,30.25,WSW,255,3.0,6.0,66,0.00,,,0.00,,2013-01-10 01:33:00,
2013-01-09 20:43:00,52.0,41.0,30.25,WSW,255,3.0,6.0,66,0.00,,,0.00,,2013-01-10 01:43:00,
2013-01-09 20:53:00,49.0,38.0,30.28,NW,320,6.0,14.0,66,0.00,,,0.00,,2013-01-10 01:53:00,
2013-01-09 21:03:00,47.0,36.0,30.31,NW,325,8.0,14.0,66,0.00,,,0.00,,2013-01-10 02:03:00,
2013-01-09 21:12:00,47.0,36.0,30.31,NW,325,8.0,14.0,66,0.00,,,0.00,,2013-01-10 02:12:00,
2013-01-09 21:22:00,46.0,36.0,30.31,NW,315,8.0,10.0,67,0.00,,,0.00,,2013-01-10 02:22:00,
2013-01-09 21:32:00,46.0,36.0,30.31,NW,315,7.0,7.0,67,0.00,,,0.00,,2013-01-10 02:32:00,
2013-01-09 21:42:00,46.0,36.0,30.31,NW,315,7.0,7.0,67,0.00,,,0.00,,2013-01-10 02:42:00,
2013-01-09 21:53:00,46.0,36.0,30.31,NW,315,7.0,7.0,67,0.00,,,0.00,,2013-01-10 02:53:00,
2013-01-09 22:03:00,44.0,34.0,30.31,WSW,255,2.0,2.0,68,0.00,,,0.00,,2013-01-10 03:03:00,
2013-01-09 22:12:00,44.0,34.0,30.31,WSW,255,2.0,2.0,68,0.00,,,0.00,,2013-01-10 03:12:00,
2013-01-09 22:22:00,43.0,34.0,30.31,West,275,0.0,0.0,70,0.00,,,0.00,,2013-01-10 03:22:00,
2013-01-09 22:33:00,42.0,34.0,30.31,West,260,0.0,0.0,72,0.00,,,0.00,,2013-01-10 03:33:00,
2013-01-09 22:42:00,42.0,34.0,30.31,West,260,0.0,0.0,72,0.00,,,0.00,,2013-01-10 03:42:00,
2013-01-09 22:53:00,40.0,33.0,30.31,SW,225,0.0,0.0,75,0.00,,,0.00,,2013-01-10 03:53:00,
2013-01-09 23:02:00,41.0,34.0,30.31,WSW,240,0.0,0.0,77,0.00,,,0.00,,2013-01-10 04:02:00,
2013-01-09 23:12:00,41.0,34.0,30.31,WSW,240,0.0,0.0,77,0.00,,,0.00,,2013-01-10 04:12:00,
2013-01-09 23:22:00,43.0,37.0,30.31,WNW,285,2.0,5.0,80,0.00,,,0.00,,2013-01-10 04:22:00,
2013-01-09 23:32:00,43.0,36.0,30.31,West,270,3.0,6.0,77,0.00,,,0.00,,2013-01-10 04:32:00,
2013-01-09 23:43:00,43.0,36.0,30.31,West,270,3.0,6.0,77,0.00,,,0.00,,2013-01-10 04:43:00,
2013-01-09 23:53:00,45.0,34.0,30.31,WNW,300,7.0,10.0,65,0.00,,,0.00,,2013-01-10 04:53:00,